Zurück zum Katalog

STARLINK-34176

AktivKommunikationVLEO
NORAD 64104·PAYLOAD·🇺🇸 United States

Gestartet May 23, 2025 von Vandenberg Space Force Base

Loading…

Nächste Überflüge (nächste 24 Stunden)

TLE

AktuellSource: CelesTrak SupGP

Epoche: Sep 14, 2026, 14:52 UTC

1 64104C 25110J   26257.61993056 -.00023760  00000+0 -70227-3 0  2572
2 64104  53.1581 228.9283 0001818  95.0126 220.5212 15.34389732    15

Verfolge STARLINK-34176 in Echtzeit mit AllMySat

Download on the App Store